• En España
  • Lista de países
  • Para 7 días
  • Temperatura del agua
  • Mapa Satelital
  • El tiempo en el mapa
  • Informadores
  • user-avatar
    Iniciar sesión

    Tiempo cada hora Myasnikovo

    Hoy, 14 Agosto, Martes

    Tiempo Temperatura Precipitaciones Viento Presión Humedad
    00:00 +18°C° 0,1 mm 2 mps 742 mmHg 93%
    01:00 +17°C° 0,1 mm 2 mps 742 mmHg 95%
    02:00 +17°C° 0 mm 2 mps 742 mmHg 96%
    03:00 +17°C° 0 mm 2 mps 742 mmHg 96%
    04:00 +18°C° 0 mm 1 mps 742 mmHg 96%
    05:00 +19°C° 0,2 mm 1 mps 742 mmHg 94%
    06:00 +19°C° 0,2 mm 1 mps 742 mmHg 92%
    07:00 +20°C° 0,2 mm 1 mps 742 mmHg 90%
    08:00 +21°C° 0,4 mm 1 mps 742 mmHg 82%
    09:00 +23°C° 0,4 mm 2 mps 742 mmHg 74%
    10:00 +24°C° 0 mm 2 mps 743 mmHg 70%
    11:00 +24°C° 0,6 mm 2 mps 743 mmHg 68%
    12:00 +24°C° 0,6 mm 3 mps 743 mmHg 66%
    13:00 +24°C° 0,6 mm 3 mps 743 mmHg 65%
    14:00 +22°C° 0,2 mm 3 mps 743 mmHg 66%
    15:00 +21°C° 0,2 mm 3 mps 743 mmHg 67%
    16:00 +20°C° 0 mm 2 mps 743 mmHg 67%
    17:00 +19°C° 0,1 mm 2 mps 744 mmHg 73%
    18:00 +18°C° 0,1 mm 2 mps 744 mmHg 78%
    19:00 +17°C° 0,1 mm 2 mps 744 mmHg 84%
    20:00 +16°C° 0 mm 2 mps 744 mmHg 85%
    21:00 +15°C° 0 mm 2 mps 744 mmHg 87%
    22:00 +15°C° 0 mm 2 mps 744 mmHg 88%
    23:00 +14°C° 0 mm 2 mps 744 mmHg 90%

    Mañana, 15 Agosto, Miércoles

    Tiempo Temperatura Precipitaciones Viento Presión Humedad
    00:00 +14°C° 0 mm 2 mps 745 mmHg 92%
    01:00 +13°C° 0 mm 2 mps 745 mmHg 94%
    02:00 +13°C° 0 mm 2 mps 745 mmHg 95%
    03:00 +12°C° 0 mm 2 mps 745 mmHg 95%
    04:00 +12°C° 0 mm 2 mps 745 mmHg 96%
    05:00 +13°C° 0 mm 2 mps 745 mmHg 93%
    06:00 +14°C° 0 mm 2 mps 746 mmHg 90%
    07:00 +13°C° 0 mm 3 mps 746 mmHg 86%
    08:00 +16°C° 0 mm 3 mps 746 mmHg 79%
    09:00 +18°C° 0 mm 3 mps 746 mmHg 71%
    10:00 +19°C° 0 mm 3 mps 746 mmHg 63%
    11:00 +20°C° 0 mm 4 mps 746 mmHg 59%
    12:00 +21°C° 0 mm 4 mps 746 mmHg 56%
    13:00 +22°C° 0 mm 4 mps 746 mmHg 53%
    14:00 +22°C° 0 mm 4 mps 746 mmHg 53%
    15:00 +22°C° 0 mm 4 mps 747 mmHg 53%
    16:00 +22°C° 0 mm 4 mps 747 mmHg 53%
    17:00 +21°C° 0 mm 3 mps 747 mmHg 60%
    18:00 +20°C° 0 mm 3 mps 747 mmHg 66%
    19:00 +19°C° 0 mm 2 mps 747 mmHg 72%
    20:00 +17°C° 0 mm 2 mps 747 mmHg 76%
    21:00 +16°C° 0 mm 2 mps 748 mmHg 79%
    22:00 +14°C° 0 mm 2 mps 748 mmHg 83%
    23:00 +14°C° 0 mm 2 mps 748 mmHg 85%

    Pasado mañana, 16 Agosto, Jueves

    Tiempo Temperatura Precipitaciones Viento Presión Humedad
    00:00 +13°C° 0 mm 2 mps 748 mmHg 88%
    01:00 +13°C° 0 mm 2 mps 748 mmHg 90%
    02:00 +13°C° 0 mm 2 mps 748 mmHg 91%
    03:00 +13°C° 0 mm 2 mps 748 mmHg 92%
    04:00 +12°C° 0 mm 2 mps 748 mmHg 93%
    05:00 +13°C° 0 mm 2 mps 747 mmHg 89%
    06:00 +13°C° 0 mm 3 mps 747 mmHg 84%
    07:00 +14°C° 0 mm 3 mps 747 mmHg 80%
    08:00 +15°C° 0,3 mm 4 mps 746 mmHg 79%
    09:00 +16°C° 0,3 mm 5 mps 745 mmHg 78%
    10:00 +17°C° 0,3 mm 6 mps 745 mmHg 78%
    11:00 +17°C° 0,7 mm 6 mps 745 mmHg 82%
    12:00 +16°C° 0,7 mm 6 mps 744 mmHg 87%
    13:00 +16°C° 0,7 mm 6 mps 744 mmHg 92%
    14:00 +16°C° 0,3 mm 5 mps 744 mmHg 93%
    15:00 +17°C° 0,3 mm 5 mps 744 mmHg 93%
    16:00 +17°C° 0,3 mm 5 mps 744 mmHg 94%
    17:00 +18°C° 0,2 mm 4 mps 744 mmHg 94%
    18:00 +18°C° 0,2 mm 4 mps 744 mmHg 94%
    19:00 +19°C° 0,2 mm 3 mps 744 mmHg 94%
    20:00 +18°C° 0,1 mm 3 mps 744 mmHg 95%
    21:00 +16°C° 0,1 mm 3 mps 745 mmHg 96%
    22:00 +14°C° 0,1 mm 3 mps 745 mmHg 97%
    23:00 +14°C° 0 mm 2 mps 745 mmHg 97%

    17 Agosto, Viernes

    Tiempo Temperatura Precipitaciones Viento Presión Humedad
    00:00 +13°C° 0 mm 2 mps 745 mmHg 98%
    01:00 +13°C° 0 mm 2 mps 745 mmHg 98%
    02:00 +12°C° 0 mm 2 mps 745 mmHg 98%
    03:00 +12°C° 0 mm 2 mps 746 mmHg 98%
    04:00 +10°C° 0 mm 2 mps 746 mmHg 98%
    05:00 +12°C° 0 mm 2 mps 746 mmHg 97%
    06:00 +12°C° 0 mm 2 mps 747 mmHg 96%
    07:00 +13°C° 0 mm 2 mps 747 mmHg 95%
    08:00 +14°C° 0 mm 2 mps 747 mmHg 88%
    09:00 +16°C° 0 mm 3 mps 747 mmHg 81%
    10:00 +17°C° 0 mm 3 mps 748 mmHg 75%
    11:00 +19°C° 0 mm 3 mps 748 mmHg 68%
    12:00 +20°C° 0 mm 3 mps 748 mmHg 61%
    13:00 +21°C° 0 mm 3 mps 748 mmHg 55%
    14:00 +21°C° 0,1 mm 3 mps 748 mmHg 55%
    15:00 +21°C° 0,1 mm 3 mps 748 mmHg 55%
    16:00 +21°C° 0,1 mm 3 mps 748 mmHg 55%
    17:00 +20°C° 0,2 mm 3 mps 748 mmHg 63%
    18:00 +18°C° 0,2 mm 2 mps 748 mmHg 70%
    19:00 +17°C° 0,2 mm 2 mps 748 mmHg 77%
    20:00 +15°C° 0 mm 2 mps 749 mmHg 79%
    21:00 +14°C° 0 mm 2 mps 749 mmHg 80%
    22:00 +13°C° 0 mm 2 mps 749 mmHg 82%
    23:00 +12°C° 0 mm 2 mps 749 mmHg 83%

    18 Agosto, Sábado

    Tiempo Temperatura Precipitaciones Viento Presión Humedad
    00:00 +10°C° 0 mm 2 mps 749 mmHg 84%
    01:00 +10°C° 0 mm 2 mps 750 mmHg 86%
    02:00 +9°C° 0 mm 2 mps 750 mmHg 86%
    03:00 +9°C° 0 mm 2 mps 750 mmHg 87%
    04:00 +8°C° 0 mm 2 mps 750 mmHg 88%
    05:00 +9°C° 0 mm 2 mps 751 mmHg 85%
    06:00 +10°C° 0 mm 3 mps 751 mmHg 82%
    07:00 +10°C° 0 mm 3 mps 751 mmHg 79%
    08:00 +12°C° 0 mm 4 mps 751 mmHg 73%
    09:00 +13°C° 0 mm 4 mps 751 mmHg 66%
    10:00 +15°C° 0 mm 4 mps 752 mmHg 59%
    11:00 +15°C° 0 mm 4 mps 751 mmHg 57%
    12:00 +17°C° 0 mm 4 mps 751 mmHg 55%
    13:00 +17°C° 0 mm 4 mps 751 mmHg 53%
    14:00 +17°C° 0 mm 4 mps 751 mmHg 53%
    15:00 +18°C° 0 mm 4 mps 751 mmHg 53%
    16:00 +18°C° 0 mm 4 mps 751 mmHg 54%
    17:00 +15°C° 0 mm 4 mps 751 mmHg 59%
    18:00 +14°C° 0 mm 3 mps 752 mmHg 64%
    19:00 +13°C° 0 mm 3 mps 752 mmHg 69%
    20:00 +12°C° 0 mm 3 mps 752 mmHg 73%
    21:00 +12°C° 0 mm 2 mps 752 mmHg 77%
    22:00 +9°C° 0 mm 2 mps 753 mmHg 81%
    23:00 +9°C° 0 mm 2 mps 753 mmHg 84%

    19 Agosto, Domingo

    Tiempo Temperatura Precipitaciones Viento Presión Humedad
    00:00 +8°C° 0 mm 2 mps 753 mmHg 86%
    01:00 +8°C° 0 mm 2 mps 753 mmHg 89%
    02:00 +7°C° 0 mm 2 mps 753 mmHg 90%
    03:00 +7°C° 0 mm 2 mps 753 mmHg 92%
    04:00 +8°C° 0 mm 1 mps 754 mmHg 93%
    05:00 +9°C° 0 mm 1 mps 754 mmHg 89%
    06:00 +10°C° 0 mm 1 mps 754 mmHg 84%
    07:00 +11°C° 0 mm 1 mps 754 mmHg 80%
    08:00 +13°C° 0 mm 2 mps 754 mmHg 72%
    09:00 +15°C° 0 mm 2 mps 754 mmHg 64%
    10:00 +17°C° 0 mm 2 mps 754 mmHg 56%
    11:00 +18°C° 0 mm 2 mps 753 mmHg 53%
    12:00 +19°C° 0 mm 2 mps 753 mmHg 49%
    13:00 +19°C° 0 mm 2 mps 753 mmHg 46%
    14:00 +20°C° 0 mm 2 mps 752 mmHg 46%
    15:00 +20°C° 0 mm 2 mps 752 mmHg 47%
    16:00 +20°C° 0 mm 2 mps 752 mmHg 47%
    17:00 +19°C° 0 mm 2 mps 752 mmHg 54%
    18:00 +18°C° 0 mm 1 mps 752 mmHg 61%
    19:00 +16°C° 0 mm 1 mps 752 mmHg 68%
    20:00 +14°C° 0 mm 1 mps 752 mmHg 71%
    21:00 +13°C° 0 mm 1 mps 752 mmHg 74%
    22:00 +12°C° 0 mm 1 mps 752 mmHg 77%
    23:00 +11°C° 0 mm 1 mps 752 mmHg 79%
    Mostrar más